This is the latest recevied weather packets stored in our database for station/object KB3HLL. If no packets are shown the sender has not sent any weather packets the latest 10 day(s).
| Time | Temp. | Humidity | Pressure | Rain* | Wind** | Luminosity | Snow |
|---|---|---|---|---|---|---|---|
| 1777994782 | 21.11° C | 62% | 1011.4 hPa | 0 mm | - | 1023 W/m² | - |
| 1777994480 | 21.11° C | 62% | 1011.4 hPa | 0 mm | - | 845 W/m² | - |
| 1777994178 | 20.56° C | 63% | 1011.3 hPa | 0 mm | - | 468 W/m² | - |
| 1777993880 | 20.56° C | 64% | 1011.3 hPa | 0 mm | - | 397 W/m² | - |
| 1777993582 | 20.56° C | 64% | 1011.4 hPa | 0 mm | - | 724 W/m² | - |
| 1777993280 | 20° C | 67% | 1011.4 hPa | 0 mm | - | 702 W/m² | - |
| 1777992980 | 20° C | 67% | 1011.3 hPa | 0 mm | - | 345 W/m² | - |
| 1777992678 | 19.44° C | 70% | 1011.2 hPa | 0 mm | - | 667 W/m² | - |
| 1777992381 | 18.89° C | 71% | 1011.3 hPa | 0 mm | - | 751 W/m² | - |
| 1777992079 | 18.89° C | 72% | 1011.3 hPa | 0 mm | - | 776 W/m² | - |
| 1777991780 | 18.33° C | 74% | 1011.4 hPa | 0 mm | - | 771 W/m² | - |
| 1777991481 | 18.33° C | 74% | 1011.3 hPa | 0 mm | - | 766 W/m² | - |
| 1777991180 | 17.78° C | 75% | 1011 hPa | 0 mm | - | 673 W/m² | - |
| 1777990879 | 17.78° C | 74% | 1011.2 hPa | 0 mm | - | 713 W/m² | - |
| 1777990578 | 17.78° C | 77% | 1011.3 hPa | 0 mm | - | 655 W/m² | - |
| 1777989980 | 17.22° C | 78% | 1011.3 hPa | 0 mm | - | 686 W/m² | - |
| 1777989680 | 16.67° C | 79% | 1011.3 hPa | 0 mm | - | 666 W/m² | - |
| 1777989380 | 16.67° C | 81% | 1011.3 hPa | 0 mm | - | 647 W/m² | - |
| 1777989080 | 16.67° C | 78% | 1011.2 hPa | 0 mm | - | 623 W/m² | - |
| 1777988780 | 16.67° C | 78% | 1011.3 hPa | 0 mm | - | 608 W/m² | - |
| 1777988480 | 16.67° C | 79% | 1011.3 hPa | 0 mm | - | 586 W/m² | - |
| 1777988180 | 16.11° C | 83% | 1011.3 hPa | 0 mm | - | 559 W/m² | - |
| 1777987880 | 16.11° C | 83% | 1011.4 hPa | 0 mm | - | 556 W/m² | - |
| 1777987579 | 16.67° C | 81% | 1011.4 hPa | 0 mm | - | 551 W/m² | - |
| 1777987280 | 16.67° C | 78% | 1011.4 hPa | 0.25 mm | - | 528 W/m² | - |
* Rain latest hour (hover to see other rain measurements)
** Current wind speed in m/s (hover to see current wind gust speed)